Location: Colonia Mina de C?rbuni
(46.1667°N, 22.7167°E)
Time: 21:07:10
(UTC+00:00)

Tiros 1 - Pass Details

Date: 20 April 2024
Orbit: 624 x 657 km, 48.4° (Epoch: 20 May)

Event Time Altitude Azimuth Distance (km) Brightness Sun altitude
Rises 05:14:53 0° 284° (WNW) 2,905 9.9 16.5°
Reaches altitude 10° 05:17:47 10° 266° (W) 1,993 9.1 17.0°
Maximum altitude 05:20:54 18° 223° (SW) 1,518 8.8 17.5°
Drops below altitude 10° 05:24:01 10° 179° (S) 1,987 9.8 18.1°
Sets 05:26:55 0° 161° (SSE) 2,893 10.8 18.6°
